This is the latest recevied weather packets stored in our database for station/object KR0L-13. If no packets are shown the sender has not sent any weather packets the latest 1 day(s).
| Time | Temp. | Humidity | Pressure | Rain* | Wind** | Luminosity | Snow |
|---|---|---|---|---|---|---|---|
| 1836274395 | 21.11° C | 67% | 1015.9 hPa | 0 mm | 0 m/s | - | - |
| 1836274245 | 21.11° C | 68% | 1015.9 hPa | 0 mm | 0 m/s | - | - |
| 1778045421 | 7.22° C | 91% | 1015.1 hPa | 0 mm | 0 m/s | - | - |
| 1778044822 | 7.22° C | 91% | 1015 hPa | 0 mm | 0 m/s | - | - |
| 1778044221 | 7.22° C | 91% | 1014.7 hPa | 0 mm | 0 m/s | - | - |
| 1778043622 | 7.22° C | 90% | 1014.7 hPa | 0.25 mm | 0 m/s | - | - |
| 1778043021 | 7.22° C | 90% | 1014.7 hPa | 0.51 mm | 0.89 m/s, 338° | - | - |
| 1778042421 | 7.22° C | 90% | 1014.8 hPa | 0.76 mm | 0.89 m/s, 338° | - | - |
| 1778041821 | 7.22° C | 89% | 1014.6 hPa | 1.27 mm | 1.79 m/s, 338° | - | - |
| 1778041221 | 7.22° C | 88% | 1014.4 hPa | 1.52 mm | 2.68 m/s, 338° | - | - |
| 1778040621 | 7.22° C | 87% | 1014.6 hPa | 1.52 mm | 2.24 m/s, 338° | - | - |
| 1778040021 | 7.78° C | 86% | 1015 hPa | 1.27 mm | 3.13 m/s, 315° | - | - |
| 1778039421 | 7.78° C | 84% | 1014.7 hPa | 1.02 mm | 1.34 m/s, 338° | - | - |
| 1778038821 | 8.33° C | 80% | 1014.7 hPa | 0.76 mm | 1.79 m/s, 338° | - | - |
| 1778038221 | 8.89° C | 77% | 1014.6 hPa | 0.25 mm | 2.24 m/s, 338° | - | - |
| 1778037621 | 8.89° C | 72% | 1014.7 hPa | 0 mm | 2.24 m/s, 338° | - | - |
| 1778037021 | 9.44° C | 70% | 1014.6 hPa | 0 mm | 2.68 m/s, 338° | - | - |
| 1778036421 | 9.44° C | 71% | 1014.6 hPa | 0 mm | 2.68 m/s, 315° | - | - |
| 1778035821 | 9.44° C | 72% | 1014.4 hPa | 0 mm | 2.68 m/s, 315° | - | - |
| 1778035221 | 9.44° C | 71% | 1014.2 hPa | 0 mm | 4.02 m/s, 315° | - | - |
| 1778034621 | 9.44° C | 74% | 1014 hPa | 0 mm | 2.68 m/s, 270° | - | - |
| 1778034021 | 9.44° C | 81% | 1013.8 hPa | 0 mm | 0.45 m/s, 270° | - | - |
| 1778033421 | 9.44° C | 82% | 1013.8 hPa | 0 mm | 0 m/s | - | - |
| 1778032821 | 9.44° C | 82% | 1013.5 hPa | 0 mm | 0 m/s | - | - |
| 1778032221 | 9.44° C | 82% | 1013.3 hPa | 0 mm | 0 m/s | - | - |
* Rain latest hour (hover to see other rain measurements)
** Current wind speed in m/s (hover to see current wind gust speed)